EW9318 Weather Reports


time (UTC)temp
F
wind
direction
speed
knots
gust
knots
rain 1hr
in
rain 24hr
in
rain mn
in
humidity
%
barometer
mb
20260906053017 64 50 0.9 3.5 0.00 0.00 0.00 82 1016.2
20260906052517 64 74 1.7 3.5 0.00 0.00 0.00 81 1016.1
20260906052017 64 86 1.7 3.5 0.00 0.00 0.00 81 1016.1
20260906051517 64 98 2.6 5.2 0.00 0.00 0.00 81 1016.1
20260906051016 64 83 2.6 5.2 0.00 0.00 0.00 81 1016.1
20260906050517 65 21 1.7 7.0 0.00 0.00 0.00 81 1016.0
20260906050017 65 44 3.5 7.0 0.00 0.00 0.00 81 1016.0
20260906045518 65 20 2.6 6.1 0.00 0.00 0.00 81 1015.8
20260906045016 65 64 2.6 6.1 0.00 0.00 0.00 81 1015.8
20260906044517 65 85 2.6 6.1 0.00 0.00 0.00 82 1015.7
20260906044017 65 86 2.6 5.2 0.00 0.00 0.00 82 1015.7
20260906043518 65 84 2.6 5.2 0.00 0.00 0.00 81 1015.7
20260906043017 66 76 1.7 4.3 0.00 0.00 0.00 81 1015.6
20260906042538 66 83 2.6 6.1 0.00 0.00 0.00 81 1015.6
20260906042017 66 79 2.6 6.1 0.00 0.00 0.00 81 1015.5
20260906041516 66 84 1.7 6.1 0.00 0.00 0.00 81 1015.5
20260906041016 66 84 3.5 7.8 0.00 0.00 0.00 81 1015.5
20260906040518 67 82 3.5 7.8 0.00 0.00 0.00 80 1015.5
20260906040016 67 81 3.5 7.8 0.00 0.00 0.00 80 1015.5
20260906035515 67 81 3.5 7.8 0.00 0.00 0.00 80 1015.5
20260906035015 67 85 4.3 7.0 0.00 0.00 0.00 81 1015.4
20260906034515 68 88 3.5 7.0 0.00 0.00 0.00 81 1015.4
20260906034015 68 80 2.6 7.0 0.00 0.00 0.00 82 1015.4
20260906033515 68 77 2.6 6.1 0.00 0.00 0.00 82 1015.3
20260906033015 68 79 2.6 6.1 0.00 0.00 0.00 81 1015.3
20260906032515 68 82 2.6 7.0 0.00 0.00 0.00 82 1015.4
20260906032055 68 81 2.6 7.0 0.00 0.00 0.00 82 1015.5
20260906031517 68 75 1.7 4.3 0.00 0.00 0.00 82 1015.6
20260906031017 68 70 2.6 5.2 0.00 0.00 0.00 83 1015.5
20260906030517 68 67 2.6 6.1 0.00 0.00 0.00 83 1015.4
20260906030017 68 81 2.6 6.1 0.00 0.00 0.00 83 1015.4
20260906025517 69 82 3.5 7.0 0.00 0.00 0.00 83 1015.4
20260906025018 69 84 2.6 7.0 0.00 0.00 0.00 83 1015.3
20260906024518 69 82 2.6 7.0 0.00 0.00 0.00 84 1015.3
20260906024017 69 79 2.6 7.0 0.00 0.00 0.00 84 1015.2
20260906023518 68 76 2.6 7.0 0.00 0.00 0.00 84 1015.0
20260906023037 68 75 3.5 7.0 0.00 0.00 0.00 85 1014.9
20260906022517 68 78 3.5 7.0 0.00 0.00 0.00 87 1014.9
20260906022017 68 76 2.6 6.1 0.00 0.00 0.00 88 1015.0
20260906021517 68 72 0.9 4.3 0.00 0.00 0.00 89 1014.9
20260906021018 68 68 0.9 3.5 0.00 0.00 0.00 89 1014.9
20260906020517 68 80 0.9 3.5 0.00 0.00 0.00 89 1014.8
20260906020017 68 84 0.9 2.6 0.00 0.00 0.00 90 1014.8
20260906015517 68 56 0.0 2.6 0.00 0.00 0.00 90 1014.8
20260906015017 69 52 0.9 2.6 0.00 0.00 0.00 90 1014.8
20260906014517 69 47 0.0 1.7 0.00 0.00 0.00 90 1014.9
20260906014017 69 0.0 0.0 0.00 0.00 0.00 90 1014.8
20260906013517 69 0.0 0.0 0.00 0.00 0.00 89 1014.9
20260906013017 69 0.0 0.0 0.00 0.00 0.00 89 1014.8
20260906012518 69 0.0 0.0 0.00 0.00 0.00 89 1014.6
20260906012017 70 0.0 0.9 0.00 0.00 0.00 89 1014.6
20260906011517 70 37 0.0 0.9 0.00 0.00 0.00 89 1014.5
20260906011018 70 0.0 0.0 0.00 0.00 0.00 88 1014.4
20260906010517 70 0.0 0.0 0.00 0.00 0.00 88 1014.3
20260906010018 70 0.0 0.0 0.00 0.00 0.00 87 1014.3
20260906005517 70 0.0 0.0 0.00 0.00 0.00 87 1014.2
20260906005016 71 0.0 0.0 0.00 0.00 0.00 86 1014.1
20260906004517 71 0.0 0.0 0.00 0.00 0.00 86 1014.1
20260906004037 71 0.0 0.9 0.00 0.00 0.00 86 1014.0
20260906003517 71 37 0.0 0.9 0.00 0.00 0.00 85 1014.0
20260906003037 71 37 0.0 0.9 0.00 0.00 0.00 85 1014.0
20260906002516 72 37 0.0 1.7 0.00 0.00 0.00 85 1014.0
20260906002016 72 39 0.0 2.6 0.00 0.00 0.00 84 1014.0
20260906001517 72 39 0.9 2.6 0.00 0.00 0.00 84 1014.0
20260906001037 72 32 0.0 1.7 0.00 0.00 0.00 84 1014.0
20260906000516 73 31 0.0 1.7 0.00 0.00 0.00 83 1014.0
20260906000018 73 24 0.0 1.7 0.00 0.00 0.00 83 1014.0
20260905235517 73 35 0.0 1.7 0.00 0.00 0.00 83 1013.9
20260905235036 73 42 0.0 2.6 0.00 0.00 0.00 83 1013.9
20260905234517 73 42 0.9 3.5 0.00 0.00 0.00 83 1013.9
20260905234017 73 49 1.7 3.5 0.00 0.00 0.00 83 1013.9
20260905233517 73 44 0.9 2.6 0.00 0.00 0.00 84 1013.9
20260905233016 73 37 0.9 2.6 0.00 0.00 0.00 84 1013.9
20260905232516 73 47 0.0 3.5 0.00 0.00 0.00 84 1013.9
20260905232017 73 61 1.7 4.3 0.00 0.00 0.00 84 1013.9
20260905231537 73 69 1.7 4.3 0.00 0.00 0.00 84 1014.0
20260905231016 73 51 0.9 3.5 0.00 0.00 0.00 84 1013.9
20260905230516 73 60 0.0 3.5 0.00 0.00 0.00 85 1013.9
20260905230018 73 55 0.9 4.3 0.00 0.00 0.00 85 1013.9
20260905225517 73 58 2.6 4.3 0.00 0.00 0.00 84 1013.9
20260905225017 73 44 0.9 3.5 0.00 0.00 0.00 84 1013.8
20260905224516 73 48 0.9 4.3 0.00 0.00 0.00 84 1013.7
20260905224017 73 54 1.7 7.8 0.00 0.00 0.00 84 1013.7
20260905223536 73 66 4.3 8.7 0.00 0.00 0.00 83 1013.7
20260905223016 73 61 5.2 8.7 0.00 0.00 0.00 84 1013.6
20260905222517 73 58 2.6 7.0 0.00 0.00 0.00 85 1013.6
20260905222018 73 74 2.6 6.1 0.00 0.00 0.00 85 1013.5
20260905221518 73 74 2.6 7.0 0.00 0.00 0.00 85 1013.4
20260905221016 72 78 2.6 7.8 0.00 0.00 0.00 85 1013.4
20260905220517 72 87 5.2 7.8 0.00 0.00 0.00 85 1013.4
20260905220016 72 84 6.1 9.6 0.00 0.00 0.00 85 1013.5
20260905215536 72 79 5.2 9.6 0.00 0.00 0.00 85 1013.4
20260905215016 72 58 3.5 11.3 0.00 0.00 0.00 86 1013.4
20260905214517 72 68 6.1 11.3 0.00 0.00 0.00 86 1013.3
20260905214017 72 74 5.2 7.8 0.00 0.00 0.00 86 1013.2
20260905213518 72 79 4.3 7.8 0.00 0.00 0.00 87 1013.2
20260905213017 72 75 4.3 8.7 0.00 0.00 0.00 87 1013.2
20260905212518 72 86 3.5 8.7 0.00 0.00 0.00 87 1013.2
20260905212017 72 91 5.2 7.8 0.00 0.00 0.00 86 1013.2
20260905211516 72 63 4.3 7.8 0.00 0.00 0.00 87 1013.2
20260905211016 72 69 4.3 9.6 0.00 0.00 0.00 86 1013.2
20260905210516 72 67 5.2 9.6 0.00 0.00 0.00 86 1013.2
20260905210017 72 78 4.3 8.7 0.00 0.00 0.00 87 1013.2
20260905205539 72 69 4.3 8.7 0.00 0.00 0.00 87 1013.2
20260905205016 72 85 6.1 9.6 0.00 0.00 0.00 87 1013.3
20260905204518 72 72 6.1 9.6 0.00 0.00 0.00 87 1013.4
20260905204016 71 83 5.2 9.6 0.00 0.01 0.00 87 1013.4
20260905203516 71 78 6.1 10.4 0.00 0.01 0.00 87 1013.4
20260905203016 71 72 6.1 10.4 0.00 0.01 0.00 87 1013.5
20260905202516 71 70 6.1 11.3 0.00 0.01 0.00 88 1013.5
20260905202017 71 67 7.0 11.3 0.00 0.01 0.00 87 1013.6
20260905201516 71 70 7.0 9.6 0.00 0.01 0.00 87 1013.6
20260905201017 71 64 5.2 9.6 0.00 0.02 0.00 88 1013.6
20260905200537 71 68 4.3 9.6 0.00 0.02 0.00 88 1013.6
20260905200017 71 63 5.2 9.6 0.00 0.02 0.00 89 1013.6
20260905195536 71 65 4.3 8.7 0.00 0.02 0.00 89 1013.6
20260905195056 71 71 4.3 9.6 0.00 0.02 0.00 89 1013.6
20260905194516 71 64 4.3 10.4 0.00 0.02 0.00 89 1013.6
20260905194016 71 62 5.2 10.4 0.00 0.03 0.00 88 1013.6
20260905193516 71 50 4.3 10.4 0.00 0.03 0.00 88 1013.6
20260905193016 71 56 4.3 8.7 0.00 0.03 0.00 89 1013.5
20260905192536 71 56 3.5 8.7 0.00 0.03 0.00 89 1013.7
20260905192017 71 65 6.1 9.6 0.00 0.04 0.00 89 1013.7
20260905191517 71 74 4.3 9.6 0.00 0.04 0.00 89 1013.8
20260905191016 71 48 3.5 7.8 0.00 0.04 0.00 89 1013.7
20260905190516 71 52 2.6 9.6 0.00 0.05 0.00 90 1013.6
20260905190016 71 54 5.2 9.6 0.00 0.05 0.00 89 1013.7
20260905185517 71 50 4.3 8.7 0.00 0.05 0.00 89 1013.8
20260905185016 71 63 3.5 8.7 0.00 0.05 0.00 89 1013.8
20260905184517 71 46 3.5 9.6 0.00 0.06 0.00 90 1013.8
20260905184016 71 68 4.3 9.6 0.00 0.06 0.00 90 1013.7
20260905183537 71 68 3.5 7.8 0.00 0.07 0.00 90 1013.7
20260905183016 71 67 4.3 7.8 0.00 0.07 0.00 90 1013.7
20260905182516 71 50 3.5 8.7 0.00 0.07 0.00 90 1013.6
20260905182016 71 57 4.3 8.7 0.00 0.08 0.00 90 1013.7
20260905181516 71 66 4.3 8.7 0.00 0.08 0.00 90 1013.7
20260905181016 71 55 2.6 7.8 0.00 0.08 0.00 91 1013.6
20260905180536 71 43 4.3 7.8 0.00 0.09 0.00 91 1013.7
20260905180017 71 45 2.6 6.1 0.00 0.09 0.00 92 1013.8
20260905175536 71 39 2.6 7.0 0.00 0.09 0.00 92 1013.8
20260905175036 71 35 3.5 7.0 0.00 0.10 0.00 92 1013.8
20260905174556 70 67 3.5 6.1 0.00 0.10 0.00 93 1013.8
20260905174016 70 55 3.5 7.8 0.00 0.10 0.00 93 1013.8
20260905173516 70 74 4.3 7.8 0.00 0.10 0.00 93 1013.7
20260905173036 70 62 3.5 6.1 0.00 0.11 0.00 94 1013.7
20260905172516 70 53 1.7 7.8 0.00 0.11 0.00 94 1013.7
20260905172016 69 71 3.5 7.8 0.00 0.12 0.00 94 1013.7
20260905171516 69 45 2.6 6.1 0.00 0.12 0.00 94 1013.9
20260905171016 69 37 2.6 6.1 0.00 0.12 0.00 94 1013.9
20260905170516 69 35 2.6 7.0 0.00 0.13 0.00 94 1013.9
20260905170016 69 66 3.5 7.0 0.00 0.13 0.00 94 1014.0
20260905165536 69 65 3.5 7.8 0.00 0.15 0.00 94 1013.9
20260905165016 69 54 3.5 7.8 0.00 0.15 0.00 94 1013.9
20260905164516 69 49 3.5 7.8 0.00 0.15 0.00 94 1013.8
20260905164016 69 53 2.6 7.8 0.00 0.16 0.00 94 1013.8
20260905163516 69 48 2.6 5.2 0.00 0.16 0.00 94 1013.8
20260905163016 69 39 2.6 7.8 0.00 0.17 0.00 94 1013.8
20260905162516 69 38 3.5 7.8 0.00 0.17 0.00 94 1013.9
20260905162016 69 18 3.5 7.0 0.00 0.18 0.00 94 1013.9
20260905161516 69 16 3.5 7.8 0.00 0.18 0.00 94 1013.8
20260905161016 69 18 3.5 8.7 0.00 0.18 0.00 94 1013.8
20260905160516 69 19 5.2 8.7 0.00 0.19 0.00 94 1013.8
20260905160016 69 40 3.5 7.8 0.00 0.19 0.00 94 1013.7
20260905155516 69 28 4.3 7.8 0.00 0.19 0.00 94 1013.7
20260905155017 69 48 2.6 5.2 0.00 0.20 0.00 94 1013.5
20260905154536 69 34 2.6 7.8 0.00 0.20 0.00 94 1013.5
20260905154016 69 46 3.5 7.8 0.00 0.20 0.00 94 1013.5
20260905153516 69 56 2.6 8.7 0.00 0.21 0.00 94 1013.6
20260905153016 69 58 3.5 8.7 0.00 0.21 0.00 94 1013.6
20260905152515 69 63 4.3 7.8 0.00 0.21 0.00 94 1013.6
20260905152016 69 28 2.6 7.0 0.00 0.22 0.00 94 1013.5
20260905151516 69 47 2.6 6.1 0.00 0.22 0.00 94 1013.5
20260905151015 69 57 1.7 7.0 0.00 0.23 0.00 94 1013.5
20260905150516 69 60 3.5 7.0 0.00 0.23 0.00 94 1013.5
20260905150036 69 39 2.6 6.1 0.00 0.23 0.00 94 1013.6
20260905145536 69 53 2.6 7.8 0.00 0.24 0.00 94 1013.5
20260905145015 69 29 4.3 7.8 0.00 0.24 0.00 94 1013.3
20260905144515 70 39 3.5 7.0 0.00 0.24 0.00 94 1013.2
20260905144015 70 15 3.5 8.7 0.00 0.25 0.00 94 1013.1
20260905143516 70 10 5.2 8.7 0.00 0.25 0.00 94 1013.2
20260905143016 70 15 4.3 8.7 0.00 0.25 0.00 93 1013.2
20260905142516 70 6 4.3 8.7 0.00 0.25 0.00 93 1013.2
20260905142037 70 12 5.2 8.7 0.00 0.26 0.00 94 1013.2
20260905141515 71 17 4.3 8.7 0.00 0.26 0.00 94 1013.2
20260905141015 71 73 1.7 6.1 0.00 0.26 0.00 94 1013.1
20260905140536 71 101 2.6 6.1 0.00 0.27 0.00 95 1013.1
20260905140015 71 78 1.7 6.1 0.00 0.27 0.00 95 1013.1
20260905135516 70 78 2.6 5.2 0.00 0.27 0.00 95 1013.0
20260905135017 70 85 1.7 5.2 0.00 0.28 0.00 95 1012.9
20260905134515 70 70 1.7 3.5 0.00 0.28 0.00 95 1013.0
20260905134016 70 90 0.9 3.5 0.00 0.28 0.00 95 1013.0
20260905133515 70 78 1.7 6.1 0.00 0.29 0.00 96 1013.0
20260905133117 70 83 2.6 6.1 0.00 0.29 0.00 96 1012.9
20260905132515 70 81 1.7 6.1 0.00 0.29 0.00 96 1012.9
20260905132035 70 94 1.7 5.2 0.00 0.29 0.00 96 1012.8
20260905131515 70 65 1.7 5.2 0.00 0.30 0.00 96 1012.8
20260905131015 70 69 1.7 4.3 0.00 0.30 0.00 96 1012.7
20260905130515 70 58 1.7 3.5 0.00 0.30 0.00 96 1012.8
20260905130015 69 90 0.9 3.5 0.00 0.31 0.00 96 1012.8
20260905125515 69 89 0.9 3.5 0.00 0.31 0.00 96 1012.8
20260905125015 69 84 0.9 2.6 0.00 0.31 0.00 96 1012.7
20260905124515 69 107 0.0 3.5 0.00 0.32 0.00 96 1012.8
20260905124035 69 125 0.9 5.2 0.00 0.32 0.00 96 1012.6
20260905123515 69 119 2.6 5.2 0.00 0.33 0.00 96 1012.5
20260905123036 69 105 3.5 5.2 0.00 0.33 0.00 96 1012.5
20260905122538 68 101 1.7 5.2 0.00 0.33 0.00 96 1012.5
20260905122015 68 84 0.9 3.5 0.00 0.34 0.00 96 1012.5
20260905121515 68 74 0.9 2.6 0.00 0.34 0.00 96 1012.6
20260905121015 68 70 1.7 2.6 0.00 0.34 0.00 96 1012.6
20260905120516 68 70 1.7 2.6 0.00 0.35 0.00 96 1012.6
20260905120057 68 79 0.9 2.6 0.00 0.35 0.00 96 1012.5
20260905115515 68 81 0.9 2.6 0.00 0.35 0.00 96 1012.5
20260905115035 68 94 0.0 3.5 0.00 0.36 0.00 96 1012.4
20260905114536 68 95 1.7 3.5 0.00 0.36 0.00 96 1012.3
20260905114015 68 102 1.7 3.5 0.00 0.36 0.00 96 1012.3
20260905113536 68 102 0.9 2.6 0.00 0.37 0.00 96 1012.3
20260905113057 68 84 0.9 4.3 0.00 0.37 0.00 96 1012.2
20260905112515 68 73 1.7 4.3 0.00 0.37 0.00 96 1012.1
20260905112015 68 66 1.7 3.5 0.00 0.37 0.00 96 1012.1
20260905111517 68 69 1.7 4.3 0.00 0.37 0.00 96 1012.1
20260905111015 68 64 1.7 4.3 0.00 0.37 0.00 96 1012.0
20260905110516 68 69 1.7 6.1 0.00 0.37 0.00 96 1012.1
20260905110015 67 58 2.6 6.1 0.00 0.37 0.00 96 1012.0
20260905105515 67 66 3.5 6.1 0.00 0.37 0.00 96 1012.1
20260905105015 67 71 2.6 6.1 0.00 0.37 0.00 96 1012.1
20260905104515 67 65 2.6 6.1 0.00 0.37 0.00 96 1012.2
20260905104015 67 45 2.6 4.3 0.00 0.37 0.00 96 1012.2
20260905103555 67 45 1.7 4.3 0.00 0.37 0.00 95 1011.9
20260905103015 67 69 0.9 3.5 0.00 0.37 0.00 96 1011.9
20260905102535 67 56 0.0 3.5 0.00 0.37 0.00 96 1011.9
20260905102015 66 51 0.9 3.5 0.00 0.37 0.00 96 1011.9
20260905101515 66 48 1.7 5.2 0.00 0.37 0.00 95 1011.9
20260905101015 66 36 1.7 5.2 0.00 0.37 0.00 95 1011.9
20260905100515 66 35 0.0 2.6 0.00 0.37 0.00 95 1011.8
20260905100015 66 0.0 0.0 0.00 0.37 0.00 95 1011.7
20260905095515 66 0.0 0.0 0.00 0.37 0.00 95 1011.7
20260905095035 66 0.0 0.0 0.00 0.37 0.00 95 1011.7
20260905094535 66 0.0 0.0 0.00 0.37 0.00 95 1011.8
20260905094015 66 0.0 0.0 0.00 0.37 0.00 95 1011.8
20260905093515 66 0.0 0.0 0.00 0.37 0.00 95 1011.7
20260905093036 66 0.0 0.0 0.00 0.37 0.00 94 1011.7
20260905092516 66 0.0 0.0 0.00 0.37 0.00 94 1011.8
20260905092017 66 0.0 0.0 0.00 0.37 0.00 94 1011.8
20260905091517 66 0.0 0.0 0.00 0.37 0.00 94 1011.8
20260905091017 66 0.0 0.9 0.00 0.37 0.00 94 1011.7
20260905090517 67 51 0.0 2.6 0.00 0.37 0.00 94 1011.6
20260905090017 67 56 0.9 2.6 0.00 0.37 0.00 94 1011.6
20260905085517 67 78 0.9 1.7 0.00 0.37 0.00 94 1011.7
20260905085018 67 55 0.9 3.5 0.00 0.37 0.00 94 1011.7
20260905084517 67 26 1.7 3.5 0.00 0.37 0.00 94 1011.7
20260905084017 67 0.0 0.0 0.00 0.37 0.00 94 1011.6
20260905083517 67 0.0 1.7 0.00 0.37 0.00 94 1011.7
20260905083037 67 130 0.0 1.7 0.00 0.37 0.00 94 1011.8
20260905082517 67 52 0.0 1.7 0.00 0.37 0.00 94 1011.6
20260905082017 67 49 0.0 1.7 0.00 0.37 0.00 94 1011.5
20260905081537 68 0.0 2.6 0.00 0.37 0.00 94 1011.4
20260905081038 68 59 0.9 2.6 0.00 0.37 0.00 94 1011.2
20260905080518 68 81 0.9 2.6 0.00 0.37 0.00 94 1011.2
20260905080017 68 88 0.0 3.5 0.00 0.37 0.00 94 1011.2
20260905075518 68 71 1.7 4.3 0.00 0.37 0.00 94 1011.1
20260905075017 68 56 2.6 6.1 0.00 0.37 0.00 94 1011.1
20260905074515 68 66 2.6 6.1 0.00 0.37 0.00 94 1011.2
20260905074017 68 48 2.6 5.2 0.00 0.37 0.00 94 1011.0
20260905073517 69 45 1.7 5.2 0.00 0.37 0.00 93 1011.0
20260905073057 69 55 2.6 5.2 0.00 0.37 0.00 93 1010.8
20260905072538 69 68 2.6 5.2 0.00 0.37 0.00 93 1010.8
20260905072017 69 87 0.9 2.6 0.00 0.37 0.00 93 1010.5
20260905071518 69 79 0.9 3.5 0.00 0.37 0.00 93 1010.3
20260905071017 69 39 1.7 4.3 0.00 0.37 0.00 93 1010.4
20260905070518 69 30 1.7 5.2 0.00 0.37 0.00 93 1010.6
20260905070017 70 19 3.5 5.2 0.00 0.37 0.00 93 1010.7
20260905065517 70 63 1.7 3.5 0.00 0.37 0.00 92 1010.6
20260905065017 70 0.0 0.9 0.00 0.37 0.00 92 1010.8
20260905064517 70 233 0.0 6.1 0.00 0.37 0.00 92 1011.1
20260905064017 70 247 0.9 6.1 0.00 0.37 0.00 93 1011.3
20260905063537 70 219 2.6 7.0 0.00 0.37 0.00 92 1011.6
20260905063017 70 173 2.6 7.0 0.00 0.37 0.00 92 1011.6
20260905062536 70 230 2.6 7.0 0.00 0.37 0.00 92 1012.1
20260905062018 70 219 3.5 7.0 0.00 0.37 0.00 92 1012.2
20260905061516 70 217 3.5 7.8 0.00 0.37 0.00 91 1012.1
20260905061017 70 211 3.5 7.8 0.00 0.37 0.00 91 1011.8
20260905060517 70 134 1.7 5.2 0.00 0.37 0.00 90 1011.2
20260905060017 70 97 2.6 7.0 0.00 0.37 0.00 90 1010.9
20260905055536 70 113 2.6 7.8 0.00 0.37 0.00 90 1011.3
20260905055017 70 136 3.5 7.8 0.00 0.37 0.00 90 1011.6
20260905054517 70 125 1.7 4.3 0.00 0.37 0.00 89 1011.9
20260905054017 70 130 1.7 4.3 0.00 0.37 0.00 89 1012.0
20260905053517 70 161 0.9 7.0 0.00 0.37 0.00 89 1012.3
20260905053036 70 157 3.5 7.0 0.00 0.37 0.00 88 1012.2